#timestamp,LO_Frequency,Hit,StdDev 
1507334415.8,286047000.0,N
1507334435.7,286047002.6,N
1507334455.5,286047001.5,N
1507334475.4,286047001.5,N
1507334495.2,286047004.0,Y
1507334515.0,286047002.7,P
1507334515.9,286047002.7,P
1507334535.8,286047000.3,N
1507334555.6,286047000.6,N
1507334575.5,286047002.8,N
1507334595.3,286046999.7,N
1507334615.1,286047001.4,N
1507334635.9,286047001.8,N
1507334655.7,286047001.3,N
1507334675.6,286047001.9,N
1507334695.4,286047002.2,N
1507334715.2,286047001.5,N
1507334735.1,286046999.8,N
1507334736.0,286046999.8,N
1507334755.8,286047000.5,N
1507334775.7,286047000.1,N
1507334795.5,286047002.7,N
1507334815.3,286047002.1,N
1507334835.2,286047003.7,Y
1507334855.0,286047001.6,P
1507334855.9,286047001.6,P
1507334875.8,286046999.8,N
1507334895.6,286047000.6,N
1507334915.4,286046999.4,N
1507334935.3,286046998.7,N
1507334955.1,286047000.9,N
1507334975.8,286046998.6,N
1507334995.7,286046998.1,N
1507335015.5,286047000.4,N
1507335035.4,286047000.0,N
1507335055.2,286047002.6,N
1507335075.0,286047002.4,N
1507335075.9,286047002.4,N
1507335095.8,286047002.6,N
1507335115.6,286047002.6,N
1507335135.5,286047001.8,N
1507335155.3,286047001.7,N
1507335175.1,286047003.1,N
1507335195.9,286047003.8,N
1507335215.7,286047001.4,N
1507335235.5,286047001.3,N
1507335255.4,286047003.0,N
1507335275.2,286047003.1,N
1507335295.1,286047001.6,N
1507335296.0,286047001.6,N
1507335315.8,286047001.4,N
1507335335.6,286047001.5,N
1507335355.5,286047000.2,N
1507335375.3,286047000.4,N
1507335395.1,286046999.9,N
1507335415.9,286047000.0,N
1507335435.7,286047002.3,N
1507335455.6,286047000.9,N
1507335475.4,286047000.0,N
1507335495.2,286047000.8,N
1507335515.1,286047001.2,N
1507335516.0,286047001.2,N
1507335535.8,286047000.1,N
1507335555.6,286046999.9,N
1507335575.5,286047000.6,N
1507335595.3,286047001.1,N
1507335615.2,286047000.9,N
1507335635.9,286046999.7,N
1507335655.7,286047002.3,N
1507335675.6,286047000.0,N
1507335695.4,286047000.9,N
1507335715.2,286046999.9,N
1507335735.1,286047000.2,N
1507335736.0,286047000.2,N
1507335755.8,286047000.0,N
1507335805.7,286046998.7,E
1507335815.6,286047000.8,N
1507335835.4,286047002.2,P
1507335855.3,286047001.9,N
1507335875.1,286047002.8,Y
1507335895.9,286046998.6,P
1507335915.7,286046998.5,N
1507335935.5,286046998.9,N
1507335955.4,286046999.4,N
1507335975.2,286047001.0,N
1507335995.0,286047001.0,N
1507335995.9,286047001.0,N
1507336015.8,286047000.3,N
1507336035.6,286046999.8,N
1507336055.5,286046999.8,N
1507336075.3,286047000.9,N
1507336095.1,286047000.1,N
1507336115.9,286047002.3,N
1507336135.7,286047000.4,N
1507336155.5,286046999.7,N
1507336175.4,286047000.5,N
1507336195.2,286046999.8,N
1507336215.1,286047002.2,N
1507336216.0,286047002.2,N
1507336235.8,286047001.8,N
1507336255.6,286047002.1,N
1507336275.5,286046999.9,N
1507336295.3,286047001.9,N
1507336315.1,286047002.8,N
1507336335.9,286047001.7,N
1507336355.7,286047002.8,N
1507336375.6,286046999.7,N
1507336395.4,286047001.2,N
1507336415.2,286047000.8,N
1507336435.1,286047000.0,N
1507336436.0,286047000.0,N
1507336455.8,286047000.6,N
1507336475.6,286047002.1,N
1507336495.5,286047002.6,N
1507336515.3,286047000.7,N
1507336535.2,286047001.0,N
1507336555.9,286047000.5,N
1507336575.7,286047000.7,N
1507336595.6,286046998.2,N
1507336615.4,286046998.2,N
1507336635.2,286046998.1,N
1507336655.1,286046998.4,N
1507336656.0,286046998.4,N
1507336675.8,286047000.6,N
1507336695.7,286047001.0,N
1507336715.5,286047000.6,N
1507336735.3,286046998.3,N
1507336755.2,286047000.6,N
1507336775.0,286047000.2,N
1507336775.9,286047000.2,N
1507336795.7,286047002.4,N
1507336815.6,286047002.3,N
1507336835.4,286047002.2,N
1507336855.3,286047002.5,N
1507336875.1,286047002.7,N
1507336876.0,286047002.7,N
1507336895.8,286046999.7,N
1507336915.7,286047002.7,N
1507336935.5,286047002.1,N
1507336955.3,286047000.6,N
1507336975.2,286047000.3,N
1507336995.0,286046998.1,N
1507336995.9,286046998.1,N
1507337015.8,286046999.3,N
1507337035.6,286046999.2,N
1507337055.4,286046999.4,N
1507337075.3,286046996.6,N
1507337095.1,286046998.8,N
1507337115.9,286046999.4,N
1507337135.7,286046998.2,N
1507337155.5,286046995.6,N
1507337175.4,286046997.3,N
1507337195.2,286046997.2,N
1507337215.0,286046996.6,N
1507337215.9,286046996.6,N
1507337235.8,286046998.9,N
1507337285.7,286046999.1,E
1507337295.6,286046998.6,N
1507337315.4,286046998.7,P
1507337335.3,286046998.5,P
1507337355.1,286046998.6,Y
1507337356.0,286046998.6,P
1507337375.8,286046998.4,P
1507337395.7,286046999.3,P
1507337415.5,286046999.1,N
1507337435.3,286047001.2,Y
1507337455.2,286047002.8,P
1507337475.0,286047002.3,N
1507337475.9,286047002.3,N
1507337495.8,286047001.3,N
1507337515.6,286047002.7,N
1507337535.4,286047002.5,N
1507337555.3,286047002.2,N
1507337575.1,286047002.2,N
1507337595.9,286047002.8,N
1507337615.7,286046999.8,N
1507337635.5,286046999.7,N
1507337655.4,286046998.7,N
1507337675.2,286046999.9,N
1507337695.0,286047000.6,N
1507337695.9,286047000.6,N
1507337715.8,286047000.0,N
1507337735.6,286047000.1,N
1507337755.5,286047002.4,N
1507337775.3,286047000.3,N
1507337795.1,286046999.7,N
1507337815.9,286047001.0,N
1507337835.7,286047000.3,N
1507337855.5,286047000.8,N
1507337875.4,286047000.3,N
1507337895.2,286047000.3,N
1507337915.1,286047002.8,N
1507337916.0,286047002.8,N
1507337935.8,286046999.7,N
1507337955.6,286047000.0,N
1507337975.5,286046998.2,N
1507337995.3,286046999.0,N
